Flag for Germany Weather past 2 weeks in Rastatt, Baden-Württemberg, Germany

Now
70 °F

Passing clouds.


Feels Like: 70 °F
Forecast: 66 / 94 °F
Wind: 5 mph from North

Location: Karlsruhe - Baden Wurttemberg

Current Time: Jul 1, 2015 at 9:13:41 AM

Latest Report: Jul 1, 2015 at 8:50 AM


Visibility: N/A

Pressure: 30.09 "Hg

Humidity: 60%

Dew point: 55 °F

Location of RastattLocation

Historic Weather in Rastatt — Graph

°F

Rastatt temperature yesterday

Maximum temperature yesterday: 84 °F (at 2:50 PM)
Minimum temperature yesterday: 61 °F (at 4:50 AM)
Average temperature yesterday: 75 °F

Past Weeks' High & Low Weather Summary

 TemperatureHumidityPressure
High84 °F (Jun 29, 4:20 PM)94% (Jun 18, 11:20 AM)30.24 "Hg (Jun 18, 11:20 AM)
Low48 °F (Jun 23, 6:20 AM)23% (Jun 26, 3:20 PM)29.74 "Hg (Jun 22, 7:50 PM)
Average64 °F63%30.10 "Hg
* Reported Jun 16 7:20 AM — Jul 1 7:50 AM, Rastatt, Weather by CustomWeather, © 2015

Note: Actual official high and low records may vary slightly from our data, if they occured in-between our weather recording intervals... More about our weather records

Advertising

Rastatt weather history for previous 24 hours

 ConditionsComfort  
Time TempWeatherWind HumidityBarometerVisibility
7:50 AM
Wed, Jul 1
68 °FSunny.2 mph60%30.09 "Hg10 mi
7:20 AM64 °FSunny.3 mph68%30.07 "Hg10 mi
6:50 AM64 °FSunny.3 mph68%30.07 "Hg10 mi
6:20 AM63 °FClear.5 mph73%30.07 "Hg10 mi
5:50 AM63 °FClear.3 mph73%30.07 "Hg10 mi
5:20 AM63 °FClear.3 mph73%30.07 "Hg10 mi
4:50 AM63 °FClear.3 mph73%30.07 "Hg10 mi
11:50 PM
Tue, Jun 30
68 °FClear.8 mph56%30.07 "Hg10 mi
11:20 PM70 °FClear.6 mph53%30.07 "Hg10 mi
10:50 PM73 °FClear.7 mph44%30.07 "Hg10 mi
10:20 PM73 °FSunny.8 mph44%30.07 "Hg10 mi
9:50 PM73 °FSunny.8 mph44%30.07 "Hg10 mi
9:20 PM75 °FSunny.8 mph41%30.04 "Hg10 mi
8:50 PM79 °FSunny.9 mph34%30.04 "Hg10 mi
8:20 PM82 °FSunny.10 mph30%30.04 "Hg10 mi
7:50 PM82 °FSunny.10 mph32%30.04 "Hg10 mi
6:50 PM84 °FSunny.9 mph35%30.04 "Hg10 mi
6:20 PM84 °FSunny.10 mph33%30.07 "Hg10 mi
5:50 PM84 °FSunny.9 mph35%30.07 "Hg10 mi
4:50 PM84 °FSunny.10 mph37%30.07 "Hg10 mi
4:20 PM84 °FPassing clouds.9 mph40%30.07 "HgN/A
3:50 PM84 °FSunny.9 mph40%30.09 "Hg10 mi
2:50 PM84 °FSunny.9 mph37%30.09 "Hg10 mi
2:20 PM82 °FPassing clouds.9 mph42%30.09 "HgN/A
1:50 PM82 °FPassing clouds.9 mph42%30.12 "HgN/A
1:20 PM81 °FSunny.10 mph45%30.12 "Hg10 mi
12:50 PM81 °FSunny.10 mph45%30.12 "Hg10 mi
12:20 PM79 °FPassing clouds.9 mph48%30.12 "HgN/A
11:50 AM77 °FPassing clouds.8 mph51%30.12 "HgN/A
11:20 AM75 °FPassing clouds.9 mph57%30.15 "HgN/A
10:50 AM75 °FPassing clouds.8 mph57%30.15 "HgN/A
10:20 AM73 °FSunny.7 mph57%30.15 "Hg10 mi
9:50 AM72 °FPassing clouds.7 mph61%30.15 "HgN/A
9:20 AM72 °FPassing clouds.8 mph57%30.15 "HgN/A
Weather by CustomWeather, © 2015

See weather overviewHow to use our weather pages